Flag for Canada Weather past 2 weeks in Norman Wells, Northwest Territories, Canada

Now
37 °F

Scattered clouds.


Feels Like: 30 °F
Forecast: 18 / 42 °F
Wind: 10 mph from Southeast

Location: Norman Wells

Current Time: May 4, 2015 at 9:23:52 PM

Latest Report: May 4, 2015 at 9:00 PM


Visibility: 30 mi

Pressure: 30.21 "Hg

Humidity: 45%

Dew point: 18 °F

Location of Norman WellsLocation

Historic Weather in Norman Wells — Graph

°F

Norman Wells temperature yesterday

Maximum temperature yesterday: 36 °F (at 5:00 PM)
Minimum temperature yesterday: 27 °F (at 1:00 AM)
Average temperature yesterday: 31 °F

Past Weeks' High & Low Weather Summary

 TemperatureHumidityPressure
High50 °F (Apr 21, 4:00 PM)100% (Apr 28, 6:00 AM)30.32 "Hg (Apr 28, 6:00 AM)
Low21 °F (Apr 20, 7:00 AM)39% (May 4, 6:00 PM)29.38 "Hg (Apr 29, 11:00 AM)
Average35 °F70%29.92 "Hg
* Reported Apr 19 8:00 PM — May 4 8:00 PM, Norman Wells, Weather by CustomWeather, © 2015

Note: Actual official high and low records may vary slightly from our data, if they occured in-between our weather recording intervals... More about our weather records

Advertising

Norman Wells weather history for previous 24 hours

 ConditionsComfort  
Time TempWeatherWind HumidityBarometerVisibility
8:00 PM
Mon, May 4
39 °FScattered clouds.6 mph42%30.21 "Hg30 mi
7:00 PM39 °FScattered clouds.6 mph42%30.22 "Hg30 mi
6:00 PM39 °FPassing clouds.2 mph39%30.23 "Hg30 mi
5:00 PM39 °FPassing clouds.6 mph45%30.24 "Hg30 mi
4:00 PM37 °FPassing clouds.6 mph48%30.25 "Hg30 mi
2:00 PM36 °FPassing clouds.6 mph48%30.28 "Hg30 mi
1:00 PM32 °FScattered clouds.7 mph51%30.28 "Hg30 mi
12:00 PM32 °FScattered clouds.8 mph55%30.29 "Hg30 mi
11:00 AM30 °FPassing clouds.9 mph51%30.30 "Hg30 mi
10:00 AM27 °FPassing clouds.8 mph59%30.31 "Hg30 mi
9:00 AM25 °FPassing clouds.7 mph69%30.31 "Hg30 mi
8:00 AM25 °FPassing clouds.7 mph63%30.32 "Hg30 mi
7:00 AM23 °FPassing clouds.6 mph68%30.32 "Hg30 mi
6:00 AM21 °FPassing clouds.5 mph74%30.32 "Hg30 mi
5:00 AM23 °FPassing clouds.5 mph68%30.32 "Hg30 mi
4:00 AM25 °FPassing clouds.5 mph69%30.32 "Hg30 mi
3:00 AM25 °FPassing clouds.6 mph69%30.32 "Hg30 mi
2:00 AM25 °FPassing clouds.5 mph69%30.32 "Hg30 mi
1:00 AM25 °FPartly sunny.3 mph69%30.32 "Hg30 mi
12:00 AM27 °FPartly sunny.No wind64%30.31 "Hg30 mi
11:00 PM
Sun, May 3
28 °FPartly sunny.5 mph59%30.31 "Hg30 mi
10:00 PM32 °FScattered clouds.6 mph51%30.30 "Hg30 mi
9:00 PM32 °FScattered clouds.6 mph55%30.30 "Hg30 mi
Weather by CustomWeather, © 2015

See weather overviewHow to use our weather pages